Terminal Aerodrome Forecast
Issued by NWS Green Bay, WI

Home | Current Version | Previous Version | Graphics & Text | Print | Product List | Glossary On
Versions: 1 2 3 4 5 6 7 8 9 10 11 12 13 14 15 16 17 18
000
FTUS43 KGRB 141240 AAB
TAFGRB
TAF AMD
KGRB 141240Z 1413/1512 25003KT P6SM SCT008 SCT080
      TEMPO 1413/1415 BKN008
     FM141500 26005KT P6SM SCT250
     FM150000 26003KT P6SM SKC=

USA.gov is the U.S. government's official web portal to all federal, state and local government web resources and services.